CW0238 Weather Reports


Display with metric or nautical units.
time (UTC)temp
F
wind
direction
speed
MPH
gust
MPH
rain 1hr
in
rain 24hr
in
rain mn
in
humidity
%
barometer
mb
20260507101525 43 50 0.0 0.0 0.00 0.00 0.00 88 1015.6
20260507101024 43 50 0.0 0.0 0.00 0.00 0.00 87 1015.7
20260507100523 43 50 0.0 0.0 0.00 0.00 0.00 87 1015.6
20260507100021 44 50 0.0 0.0 0.00 0.00 0.00 87 1015.6
20260507095520 44 50 0.0 0.0 0.00 0.00 0.00 87 1015.6
20260507095020 44 50 0.0 0.0 0.00 0.00 0.00 87 1015.5
20260507094739 44 50 0.0 0.0 0.00 0.00 0.00 87 1015.6
20260507094015 44 50 0.0 0.0 0.00 0.00 0.00 87 1015.5
20260507093515 44 50 0.0 0.0 0.00 0.00 0.00 87 1015.5
20260507093015 44 50 0.0 0.0 0.00 0.00 0.00 87 1015.5
20260507092515 44 50 0.0 0.0 0.00 0.00 0.00 87 1015.5
20260507092013 45 50 0.0 0.0 0.00 0.00 0.00 87 1015.4
20260507091521 45 50 0.0 0.0 0.00 0.00 0.00 87 1015.4
20260507091011 45 50 0.0 0.0 0.00 0.00 0.00 87 1015.4
20260507090514 45 50 0.0 0.0 0.00 0.00 0.00 87 1015.3
20260507090005 45 50 0.0 0.0 0.00 0.00 0.00 87 1015.3
20260507085503 45 50 0.0 0.0 0.00 0.00 0.00 87 1015.2
20260507085001 45 50 0.0 0.0 0.00 0.00 0.00 87 1015.1
20260507084500 46 50 0.0 0.0 0.00 0.00 0.00 87 1015.0
20260507083959 46 50 0.0 0.0 0.00 0.01 0.00 87 1015.0
20260507083457 46 50 0.0 0.0 0.00 0.01 0.00 87 1015.0
20260507082956 46 50 0.0 0.0 0.00 0.01 0.00 87 1014.9
20260507082456 46 50 0.0 0.0 0.00 0.01 0.00 87 1014.9
20260507081955 46 50 0.0 0.0 0.00 0.01 0.00 87 1014.8
20260507081454 46 50 0.0 0.0 0.00 0.01 0.00 87 1014.9
20260507081215 46 50 0.0 0.0 0.00 0.01 0.00 87 1014.9
20260507080459 46 50 0.0 0.0 0.00 0.01 0.00 87 1014.9
20260507075948 46 50 0.0 0.0 0.00 0.01 0.00 87 1014.9
20260507075446 46 50 0.0 0.0 0.00 0.01 0.00 87 1014.9
20260507074943 46 50 0.0 0.0 0.00 0.01 0.00 86 1014.8
20260507074443 46 50 0.0 0.0 0.00 0.01 0.00 86 1014.8
20260507073941 46 50 0.0 0.0 0.00 0.01 0.00 86 1014.7
20260507072941 47 50 0.0 0.0 0.00 0.01 0.00 86 1014.8
20260507072441 47 50 0.0 0.0 0.00 0.01 0.00 86 1014.8
20260507071944 47 50 0.0 0.0 0.00 0.01 0.00 86 1014.8
20260507071435 47 50 0.0 0.0 0.00 0.01 0.00 86 1014.7
20260507070934 47 50 0.0 0.0 0.00 0.02 0.00 86 1014.8
20260507070438 47 50 0.0 0.0 0.00 0.02 0.00 86 1014.8
20260507065934 47 50 0.0 0.0 0.00 0.04 0.00 86 1014.9
20260507065435 47 50 0.0 0.0 0.00 0.06 0.00 86 1014.7
20260507064934 47 50 0.0 0.0 0.00 0.07 0.00 86 1014.7
20260507064434 47 50 0.0 0.0 0.00 0.08 0.00 86 1015.0
20260507064200 48 50 0.0 0.0 0.00 0.09 0.00 86 1014.9
20260507063425 48 50 0.0 0.0 0.00 0.10 0.00 86 1014.8
20260507062924 48 50 0.0 0.0 0.00 0.11 0.00 86 1014.9
20260507062427 48 50 0.0 0.0 0.00 0.13 0.00 86 1015.0
20260507061923 48 50 0.0 0.0 0.00 0.15 0.00 86 1015.0
20260507061422 48 50 0.0 0.0 0.00 0.16 0.00 86 1015.1
20260507060923 48 50 0.0 0.0 0.00 0.16 0.00 86 1015.1
20260507060419 48 50 0.0 0.0 0.00 0.16 0.00 86 1014.9
20260507060141 48 50 0.0 0.0 0.00 0.16 0.00 86 1015.0
20260507055419 48 50 0.0 0.0 0.00 0.17 0.00 86 1014.9
20260507055139 49 50 0.0 0.0 0.00 0.19 0.00 86 1015.0
20260507054413 49 50 0.0 0.0 0.00 0.20 0.00 86 1015.0
20260507053913 49 50 0.0 0.0 0.00 0.21 0.00 85 1015.1
20260507053412 49 50 0.0 0.0 0.00 0.25 0.00 85 1015.0
20260507052913 49 50 0.0 0.0 0.00 0.26 0.00 85 1015.0
20260507052408 49 50 0.0 0.0 0.00 0.26 0.00 85 1014.9
20260507051906 49 50 0.0 0.0 0.00 0.27 0.00 85 1015.0
20260507051405 49 50 0.0 0.0 0.00 0.29 0.00 85 1015.0
20260507050903 49 50 0.0 0.0 0.00 0.33 0.00 85 1015.0
20260507050403 49 50 0.0 0.0 0.00 0.35 0.00 85 1015.0
20260507045901 49 50 0.0 0.0 0.00 0.37 0.00 85 1014.8
20260507045723 49 50 0.0 0.0 0.00 0.38 0.00 85 1014.8
20260507044858 49 50 0.0 0.0 0.00 0.40 0.00 85 1014.7
20260507044401 50 50 0.0 0.0 0.00 0.40 0.00 84 1014.7
20260507043856 50 50 0.0 0.0 0.00 0.41 0.00 84 1014.7
20260507043623 50 50 0.0 0.0 0.00 0.43 0.00 84 1014.7
20260507042855 50 50 0.0 0.0 0.00 0.44 0.00 84 1014.8
20260507042611 50 50 0.0 0.0 0.00 0.45 0.00 84 1014.8
20260507041850 50 50 0.0 0.0 0.00 0.45 0.00 84 1015.0
20260507041351 50 50 0.0 0.0 0.00 0.45 0.00 84 1015.1
20260507040846 50 50 0.0 0.0 0.00 0.45 0.00 84 1015.0
20260507040344 50 50 0.0 0.0 0.00 0.46 0.00 83 1014.9
20260507035848 50 50 0.0 0.0 0.00 0.46 0.46 84 1014.9
20260507035344 50 50 0.0 0.0 0.00 0.46 0.46 83 1015.0
20260507034846 51 50 0.0 0.0 0.00 0.46 0.46 83 1014.9
20260507034344 51 50 0.0 0.0 0.00 0.47 0.46 83 1015.1
20260507033845 51 50 0.0 0.0 0.00 0.47 0.46 83 1015.2
20260507033345 51 50 0.0 0.0 0.00 0.47 0.46 84 1015.2
20260507032844 51 50 0.0 0.0 0.00 0.47 0.46 84 1015.3
20260507032343 51 50 0.0 0.0 0.00 0.47 0.46 84 1015.2
20260507031841 51 50 0.0 0.0 0.00 0.48 0.46 84 1015.3
20260507031341 51 50 0.0 0.0 0.00 0.48 0.46 84 1015.2
20260507030840 51 50 0.0 0.0 0.00 0.48 0.46 84 1015.0
20260507030341 51 50 0.0 0.0 0.00 0.48 0.46 84 1015.0
20260507025838 51 50 0.0 0.0 0.00 0.48 0.46 84 1014.9
20260507025336 51 50 0.0 0.0 0.00 0.48 0.46 85 1014.9
20260507024837 51 50 0.0 0.0 0.00 0.49 0.46 84 1014.9
20260507024337 52 50 0.0 0.0 0.00 0.50 0.46 84 1014.9
20260507023837 52 50 0.0 0.0 0.00 0.52 0.46 84 1014.8
20260507023332 52 50 0.0 0.0 0.00 0.52 0.46 83 1014.7
20260507022830 52 50 0.0 0.0 0.00 0.53 0.46 83 1014.5
20260507022331 52 50 0.0 0.0 0.00 0.54 0.46 81 1014.5
20260507021826 53 50 0.0 0.0 0.00 0.54 0.46 81 1014.5
20260507021324 53 50 0.0 0.0 0.00 0.54 0.46 79 1014.5
20260507020823 53 50 0.0 0.0 0.00 0.54 0.46 79 1014.4
20260507020321 54 50 0.0 0.0 0.00 0.54 0.46 77 1014.2
20260507015816 54 50 0.0 0.0 0.00 0.54 0.46 75 1014.3
20260507015317 54 50 0.0 0.0 0.00 0.54 0.46 72 1014.2
20260507014811 54 50 0.0 0.0 0.00 0.54 0.46 71 1014.2
20260507014311 55 50 0.0 0.0 0.00 0.55 0.46 69 1014.1
20260507013811 55 50 0.0 0.0 0.00 0.55 0.46 69 1013.9
20260507013310 55 50 0.0 0.0 0.00 0.55 0.46 67 1013.9
20260507013036 56 50 0.0 0.0 0.00 0.55 0.46 65 1013.9
20260507012309 56 50 0.0 0.0 0.00 0.55 0.46 65 1013.8
20260507011808 56 50 0.0 0.0 0.00 0.55 0.46 64 1013.8
20260507011307 56 50 0.0 0.0 0.00 0.55 0.46 64 1013.9
20260507010805 56 50 0.0 0.0 0.00 0.55 0.46 64 1014.0
20260507010305 56 50 0.0 0.0 0.00 0.55 0.46 64 1014.0
20260507005805 56 50 0.0 0.0 0.00 0.55 0.46 65 1013.8
20260507005306 56 51 0.0 0.0 0.00 0.55 0.46 67 1013.7
20260507004805 56 50 0.0 0.0 0.00 0.55 0.46 67 1013.8
20260507004304 56 50 0.0 0.0 0.00 0.55 0.46 65 1013.8
20260507003808 57 50 0.0 0.0 0.00 0.55 0.46 65 1013.8
20260507003259 57 50 0.0 1.0 0.00 0.55 0.46 64 1013.8
20260507002759 57 50 0.0 1.0 0.00 0.55 0.46 62 1014.0
20260507002305 57 49 0.0 0.0 0.00 0.55 0.46 62 1013.8
20260507001754 58 49 0.0 0.0 0.00 0.55 0.46 60 1013.8
20260507001511 58 49 0.0 0.0 0.00 0.55 0.46 59 1013.8
20260507000755 58 49 0.0 0.0 0.00 0.55 0.46 61 1013.7
20260507000505 58 49 0.0 0.0 0.00 0.55 0.46 59 1013.7
20260506235748 58 49 0.0 0.0 0.00 0.55 0.46 59 1013.7
20260506235247 58 49 0.0 0.0 0.00 0.55 0.46 57 1013.6
20260506234744 58 49 0.0 0.0 0.00 0.55 0.46 56 1013.4
20260506234242 58 49 0.0 1.0 0.00 0.55 0.46 56 1013.3
20260506233740 58 49 0.0 1.0 0.00 0.56 0.46 57 1013.2
20260506233454 59 58 0.0 0.0 0.00 0.56 0.46 56 1013.1
20260506232735 59 58 0.0 0.0 0.00 0.56 0.46 58 1013.2
20260506232455 59 58 0.0 1.0 0.00 0.59 0.46 57 1013.4
20260506231729 59 58 0.0 2.0 0.00 0.61 0.46 58 1013.3
20260506231228 59 269 0.0 3.0 0.00 0.62 0.46 59 1013.4
20260506230729 59 275 0.0 3.0 0.00 0.62 0.46 58 1013.5
20260506230224 59 272 0.0 1.0 0.00 0.62 0.46 57 1013.5
20260506225724 60 274 0.0 2.0 0.00 0.62 0.46 57 1013.5
20260506225223 60 273 0.0 2.0 0.00 0.62 0.46 54 1013.4
20260506224716 60 274 0.0 2.0 0.00 0.62 0.46 56 1013.5
20260506224215 60 321 0.0 2.0 0.00 0.62 0.46 59 1013.6
20260506223718 60 342 0.0 1.0 0.00 0.63 0.46 53 1013.4
20260506223214 60 342 0.0 1.0 0.00 0.64 0.46 54 1012.9
20260506222934 60 345 0.0 1.0 0.00 0.64 0.46 53 1012.8
20260506222214 60 308 0.0 1.0 0.00 0.64 0.46 55 1012.7
20260506221712 60 308 0.0 2.0 0.00 0.64 0.46 55 1012.8
20260506221212 60 276 0.0 2.0 0.00 0.65 0.46 53 1012.8
20260506220711 60 329 0.0 1.0 0.00 0.67 0.46 54 1012.9
20260506220211 59 331 0.0 1.0 0.00 0.67 0.46 54 1012.9
20260506215710 60 333 0.0 3.0 0.00 0.67 0.46 54 1012.8
20260506215211 60 333 0.0 3.0 0.00 0.68 0.46 53 1013.0
20260506214706 60 319 0.0 3.0 0.00 0.68 0.46 55 1012.7
20260506213705 60 273 0.0 1.0 0.00 0.68 0.46 54 1012.4
20260506213424 60 296 1.0 8.0 0.00 0.68 0.46 55 1012.8
20260506212702 61 271 1.0 8.0 0.00 0.68 0.46 52 1012.9
20260506212203 61 312 0.0 2.0 0.00 0.68 0.46 52 1012.8
20260506211930 60 298 0.0 2.0 0.00 0.68 0.46 53 1012.7
20260506211203 60 288 0.0 0.0 0.00 0.68 0.46 55 1013.0
20260506210701 61 288 0.0 0.0 0.00 0.68 0.46 57 1013.3
20260506210159 61 288 0.0 1.0 0.00 0.68 0.46 55 1013.3
20260506205659 60 288 0.0 1.0 0.00 0.68 0.46 54 1013.1
20260506205155 60 288 0.0 1.0 0.00 0.68 0.46 55 1013.1
20260506204654 60 288 0.0 4.0 0.00 0.68 0.46 53 1013.1
20260506204155 61 288 0.0 4.0 0.00 0.68 0.46 53 1013.3
20260506203912 61 315 0.0 3.0 0.00 0.68 0.46 52 1013.4
20260506203152 61 275 1.0 7.0 0.00 0.68 0.46 54 1013.2
20260506202651 62 271 1.0 7.0 0.00 0.68 0.46 49 1013.4
20260506202146 62 230 0.0 4.0 0.00 0.68 0.46 53 1013.1
20260506201905 62 267 0.0 7.0 0.00 0.68 0.46 55 1013.1
20260506201146 61 322 0.0 7.0 0.00 0.68 0.46 51 1012.9
20260506200905 61 302 0.0 1.0 0.00 0.68 0.46 54 1012.9
20260506200140 61 302 0.0 2.0 0.00 0.68 0.46 53 1012.9
20260506195640 61 302 0.0 2.0 0.00 0.68 0.46 56 1013.1
20260506195138 61 269 0.0 2.0 0.00 0.68 0.46 52 1013.1
20260506194901 62 223 0.0 2.0 0.00 0.68 0.46 53 1013.2
20260506194136 61 250 1.0 6.0 0.00 0.68 0.46 51 1013.3
20260506193632 62 249 1.0 7.0 0.00 0.68 0.46 49 1013.4
20260506193133 62 244 1.0 7.0 0.00 0.68 0.46 52 1013.3
20260506192632 62 304 1.0 7.0 0.00 0.68 0.46 53 1013.4
20260506192405 63 265 1.0 7.0 0.00 0.68 0.46 49 1013.3
20260506191632 62 321 0.0 3.0 0.00 0.68 0.46 52 1013.1
20260506191130 62 302 1.0 6.0 0.00 0.69 0.46 55 1013.0
20260506190631 62 271 0.0 6.0 0.00 0.70 0.46 53 1013.2
20260506190126 61 343 0.0 2.0 0.00 0.71 0.46 57 1013.0
20260506185624 61 102 0.0 2.0 0.00 0.71 0.46 56 1013.0
20260506185125 61 177 0.0 6.0 0.00 0.72 0.46 55 1012.9
20260506184629 62 296 0.0 6.0 0.00 0.74 0.46 53 1013.0
20260506184128 63 242 0.0 5.0 0.00 0.74 0.46 51 1013.0
20260506183122 61 269 0.0 2.0 0.00 0.75 0.46 55 1013.3
20260506182620 60 306 0.0 2.0 0.00 0.75 0.46 55 1013.1
20260506182116 61 134 0.0 5.0 0.00 0.75 0.46 57 1013.0
20260506181619 62 269 1.0 5.0 0.00 0.75 0.46 57 1012.9
20260506181340 62 306 1.0 4.0 0.00 0.75 0.46 54 1013.0
20260506180616 61 274 1.0 4.0 0.00 0.75 0.46 57 1013.0
20260506180118 61 319 0.0 5.0 0.00 0.75 0.46 53 1013.1
20260506175614 61 289 0.0 5.0 0.00 0.75 0.46 61 1013.2
20260506175115 60 56 0.0 2.0 0.00 0.75 0.46 58 1013.0
20260506174609 59 57 0.0 2.0 0.00 0.75 0.46 57 1013.1
20260506174109 59 25 0.0 2.0 0.00 0.75 0.46 56 1013.0
20260506173607 60 5 0.0 2.0 0.00 0.75 0.46 59 1012.8
20260506173105 60 306 0.0 8.0 0.00 0.75 0.46 57 1012.7
20260506172604 60 258 1.0 9.0 0.00 0.75 0.46 61 1012.9
20260506172105 60 43 0.0 9.0 0.00 0.75 0.46 60 1013.1
20260506171606 60 265 0.0 4.0 0.00 0.75 0.46 62 1013.1
20260506171104 60 302 0.0 3.0 0.00 0.75 0.46 61 1013.3
20260506170603 59 286 0.0 2.0 0.00 0.75 0.46 59 1013.3
20260506170555 59 290 0.0 2.0 0.00 0.75 0.46 62 1013.5
20260506165819 58 53 0.0 3.0 0.00 0.75 0.46 60 1013.6
20260506165058 58 127 0.0 3.0 0.00 0.75 0.46 63 1013.3
20260506164558 58 27 0.0 2.0 0.00 0.75 0.46 61 1013.5
20260506164053 58 304 0.0 4.0 0.00 0.75 0.46 60 1013.6
20260506163811 58 257 0.0 4.0 0.00 0.75 0.46 60 1013.6
20260506163054 58 51 0.0 6.0 0.00 0.75 0.46 61 1013.6
20260506162553 58 259 1.0 9.0 0.00 0.75 0.46 61 1013.7
20260506162057 58 319 1.0 9.0 0.00 0.75 0.46 65 1013.8
20260506161549 57 29 0.0 2.0 0.00 0.75 0.46 63 1013.8
20260506160550 56 5 0.0 1.0 0.00 0.75 0.46 66 1013.8
20260506160310 56 294 0.0 3.0 0.00 0.75 0.46 64 1013.7
20260506155540 56 12 0.0 3.0 0.00 0.75 0.46 66 1013.9
20260506155044 55 30 0.0 0.0 0.00 0.75 0.46 66 1013.7
20260506154535 55 30 0.0 2.0 0.00 0.75 0.46 66 1013.6
20260506154035 55 17 0.0 2.0 0.00 0.75 0.46 68 1013.5
20260506153538 55 42 0.0 2.0 0.00 0.75 0.46 69 1013.6
20260506153030 54 42 0.0 2.0 0.00 0.75 0.46 67 1013.4
20260506152530 55 0 0.0 1.0 0.00 0.75 0.46 73 1013.3
20260506152032 54 0 0.0 2.0 0.00 0.75 0.46 71 1013.1
20260506151525 54 324 0.0 2.0 0.00 0.75 0.46 75 1013.0
20260506151027 53 335 0.0 3.0 0.00 0.75 0.46 73 1013.0
20260506150528 53 327 0.0 3.0 0.00 0.75 0.46 73 1013.1
20260506150024 52 10 0.0 3.0 0.00 0.75 0.46 73 1013.1
20260506145525 52 39 0.0 3.0 0.00 0.75 0.46 74 1013.1
20260506145021 52 346 0.0 1.0 0.00 0.75 0.46 77 1013.2
20260506144743 52 346 0.0 2.0 0.00 0.75 0.46 77 1013.0
20260506144019 52 355 0.0 2.0 0.00 0.75 0.46 78 1013.1
20260506143517 51 269 0.0 3.0 0.00 0.75 0.46 78 1013.0
20260506143233 51 268 0.0 3.0 0.00 0.75 0.46 78 1013.1
20260506142515 51 244 0.0 3.0 0.00 0.75 0.46 80 1013.1
20260506142013 51 247 0.0 3.0 0.00 0.75 0.46 80 1013.0
20260506141512 50 72 0.0 2.0 0.00 0.75 0.46 80 1013.0
20260506141016 51 319 0.0 2.0 0.00 0.75 0.46 81 1013.0
20260506140010 50 294 0.0 2.0 0.00 0.75 0.46 82 1012.8
20260506135511 50 311 0.0 0.0 0.00 0.75 0.46 83 1012.9
20260506135003 50 310 0.0 1.0 0.00 0.75 0.46 84 1012.6
20260506134725 49 311 0.0 1.0 0.00 0.75 0.46 85 1012.5
20260506134006 49 281 0.0 1.0 0.00 0.75 0.46 86 1012.4
20260506133458 48 281 0.0 1.0 0.00 0.75 0.46 87 1012.4
20260506133000 48 281 0.0 0.0 0.00 0.75 0.46 89 1012.4
20260506132502 48 281 0.0 0.0 0.00 0.75 0.46 89 1012.3
20260506131957 47 281 0.0 0.0 0.00 0.75 0.46 89 1012.3
20260506131456 47 281 0.0 0.0 0.00 0.75 0.46 90 1012.3
20260506130958 47 281 0.0 0.0 0.00 0.75 0.46 90 1012.3
20260506130452 47 281 0.0 3.0 0.00 0.75 0.46 90 1012.2
20260506125951 47 277 0.0 3.0 0.00 0.75 0.46 90 1012.2
20260506125715 47 316 0.0 0.0 0.00 0.75 0.46 90 1012.1
20260506124945 47 316 0.0 0.0 0.00 0.75 0.46 91 1011.9
20260506124444 47 316 0.0 0.0 0.00 0.75 0.46 91 1011.8
20260506123945 47 316 0.0 1.0 0.00 0.75 0.46 91 1011.9
20260506123444 47 316 0.0 1.0 0.00 0.75 0.46 91 1012.1
20260506122948 47 316 0.0 2.0 0.00 0.75 0.46 91 1012.1
20260506122443 47 316 0.0 2.0 0.00 0.75 0.46 91 1012.1
20260506121943 47 289 0.0 1.0 0.00 0.75 0.46 91 1012.1
20260506121443 47 289 0.0 1.0 0.00 0.75 0.46 91 1012.0
20260506120438 47 285 0.0 1.0 0.00 0.75 0.46 91 1011.8
20260506115939 47 285 0.0 0.0 0.00 0.75 0.46 91 1011.9
20260506115435 47 285 0.0 1.0 0.00 0.75 0.46 91 1012.1
20260506114936 47 285 0.0 2.0 0.00 0.75 0.46 91 1011.7
20260506114435 47 310 0.0 2.0 0.00 0.75 0.46 91 1011.6
20260506113934 47 331 0.0 0.0 0.00 0.75 0.46 91 1011.6
20260506113431 47 331 0.0 0.0 0.00 0.75 0.46 91 1011.7
20260506112931 47 331 0.0 0.0 0.00 0.75 0.46 91 1011.6
20260506112429 47 331 0.0 0.0 0.00 0.75 0.46 91 1011.5
20260506112157 47 331 0.0 0.0 0.00 0.75 0.46 91 1011.2
20260506111653 47 331 0.0 0.0 0.00 0.75 0.46 91 1011.0
20260506110927 47 333 0.0 0.0 0.00 0.75 0.46 91 1010.7
20260506110427 47 333 0.0 0.0 0.00 0.75 0.46 91 1010.7
20260506105922 47 333 0.0 0.0 0.00 0.75 0.46 91 1010.6
20260506105427 47 335 0.0 2.0 0.00 0.75 0.46 92 1010.6
20260506104923 47 335 0.0 2.0 0.00 0.75 0.46 92 1010.7
20260506104417 47 334 0.0 7.0 0.00 0.75 0.46 92 1010.5
20260506103916 47 342 0.0 7.0 0.00 0.75 0.46 92 1010.5
20260506103634 48 321 0.0 3.0 0.00 0.75 0.46 92 1010.6
20260506102913 48 321 0.0 3.0 0.00 0.75 0.46 92 1010.3
20260506102640 48 240 0.0 4.0 0.00 0.75 0.46 92 1010.2
20260506101912 48 223 0.0 4.0 0.00 0.75 0.46 92 1010.4